Time,TemperatureF,DewpointF,PressureIn,WindDirection,WindDirectionDegrees,WindSpeedMPH,WindSpeedGustMPH,Humidity,HourlyPrecipIn,Conditions,Clouds,dailyrainin,SoftwareType,DateUTC
2013-11-22 00:11:00,48.6,41.0,30.16,East,90,0.0,-999.0,75,-99.99,,,0.00,Acu-Link.com,2013-11-22 05:11:00,
2013-11-22 00:26:00,48.6,41.0,30.16,East,90,0.0,-999.0,75,-99.99,,,0.00,Acu-Link.com,2013-11-22 05:26:00,
2013-11-22 00:41:00,48.6,41.0,30.15,East,90,0.0,-999.0,75,-99.99,,,0.00,Acu-Link.com,2013-11-22 05:41:00,
2013-11-22 00:56:00,48.6,41.4,30.15,East,90,0.0,-999.0,76,-99.99,,,0.00,Acu-Link.com,2013-11-22 05:56:00,
2013-11-22 01:11:00,48.6,41.7,30.15,East,90,0.0,-999.0,77,-99.99,,,0.00,Acu-Link.com,2013-11-22 06:11:00,
2013-11-22 01:27:00,48.6,41.7,30.15,East,90,0.0,-999.0,77,-99.99,,,0.00,Acu-Link.com,2013-11-22 06:27:00,
2013-11-22 01:42:00,48.6,42.1,30.15,East,90,0.0,-999.0,78,-99.99,,,0.00,Acu-Link.com,2013-11-22 06:42:00,
2013-11-22 01:57:00,48.6,42.7,30.14,East,90,0.0,-999.0,80,-99.99,,,0.00,Acu-Link.com,2013-11-22 06:57:00,
2013-11-22 02:12:00,48.4,42.5,30.14,East,90,0.0,-999.0,80,-99.99,,,0.00,Acu-Link.com,2013-11-22 07:12:00,
2013-11-22 02:27:00,48.2,43.0,30.15,East,90,0.0,-999.0,82,-99.99,,,0.00,Acu-Link.com,2013-11-22 07:27:00,
2013-11-22 02:42:00,48.0,43.1,30.14,East,90,0.0,-999.0,83,-99.99,,,0.00,Acu-Link.com,2013-11-22 07:42:00,
2013-11-22 02:57:00,47.7,43.4,30.12,East,90,1.1,-999.0,85,-99.99,,,0.00,Acu-Link.com,2013-11-22 07:57:00,
2013-11-22 03:12:00,47.5,43.2,30.12,East,90,0.0,-999.0,85,-99.99,,,0.00,Acu-Link.com,2013-11-22 08:12:00,
2013-11-22 03:27:00,47.3,43.3,30.11,East,90,0.0,-999.0,86,-99.99,,,0.00,Acu-Link.com,2013-11-22 08:27:00,
2013-11-22 03:42:00,47.3,43.6,30.11,East,90,0.0,-999.0,87,-99.99,,,0.00,Acu-Link.com,2013-11-22 08:42:00,
2013-11-22 03:58:00,47.1,43.7,30.10,East,90,0.0,-999.0,88,-99.99,,,0.00,Acu-Link.com,2013-11-22 08:58:00,
2013-11-22 04:13:00,46.9,43.5,30.10,NE,45,0.0,-999.0,88,-99.99,,,0.00,Acu-Link.com,2013-11-22 09:13:00,
2013-11-22 04:28:00,46.9,43.8,30.10,NE,45,0.0,-999.0,89,-99.99,,,0.00,Acu-Link.com,2013-11-22 09:28:00,
2013-11-22 04:43:00,46.8,43.7,30.10,NE,45,0.0,-999.0,89,-99.99,,,0.00,Acu-Link.com,2013-11-22 09:43:00,
2013-11-22 04:58:00,46.8,43.7,30.10,NE,45,0.0,-999.0,89,-99.99,,,0.00,Acu-Link.com,2013-11-22 09:58:00,
2013-11-22 05:13:00,46.8,43.7,30.09,NE,45,0.0,-999.0,89,-99.99,,,0.00,Acu-Link.com,2013-11-22 10:13:00,
2013-11-22 05:29:00,46.8,43.7,30.09,NE,45,0.0,-999.0,89,-99.99,,,0.00,Acu-Link.com,2013-11-22 10:29:00,
2013-11-22 05:44:00,46.8,43.7,30.08,NE,45,0.0,-999.0,89,-99.99,,,0.00,Acu-Link.com,2013-11-22 10:44:00,
2013-11-22 05:59:00,46.8,43.7,30.09,NE,45,0.0,-999.0,89,-99.99,,,0.00,Acu-Link.com,2013-11-22 10:59:00,
2013-11-22 06:14:00,46.9,44.1,30.09,NE,45,0.0,-999.0,90,-99.99,,,0.00,Acu-Link.com,2013-11-22 11:14:00,
2013-11-22 06:29:00,47.1,44.3,30.08,NE,45,1.7,-999.0,90,-99.99,,,0.00,Acu-Link.com,2013-11-22 11:29:00,
2013-11-22 06:44:00,47.1,44.3,30.08,NE,45,0.0,-999.0,90,-99.99,,,0.00,Acu-Link.com,2013-11-22 11:44:00,
2013-11-22 06:59:00,46.9,44.1,30.08,NE,45,0.0,-999.0,90,-99.99,,,0.00,Acu-Link.com,2013-11-22 11:59:00,
2013-11-22 07:14:00,46.9,44.1,30.08,NE,45,0.0,-999.0,90,-99.99,,,0.00,Acu-Link.com,2013-11-22 12:14:00,
2013-11-22 07:29:00,46.9,44.1,30.09,NE,45,0.0,-999.0,90,-99.99,,,0.00,Acu-Link.com,2013-11-22 12:29:00,
2013-11-22 07:45:00,47.1,44.3,30.09,NE,45,0.0,-999.0,90,-99.99,,,0.00,Acu-Link.com,2013-11-22 12:45:00,
2013-11-22 08:00:00,47.5,44.7,30.07,NE,45,0.0,-999.0,90,-99.99,,,0.00,Acu-Link.com,2013-11-22 13:00:00,
2013-11-22 08:15:00,47.7,44.9,30.08,NE,45,0.0,-999.0,90,-99.99,,,0.00,Acu-Link.com,2013-11-22 13:15:00,
2013-11-22 08:30:00,48.2,45.4,30.08,NE,45,0.0,-999.0,90,-99.99,,,0.00,Acu-Link.com,2013-11-22 13:30:00,
2013-11-22 08:45:00,48.7,45.3,30.08,NE,45,0.0,-999.0,88,-99.99,,,0.00,Acu-Link.com,2013-11-22 13:45:00,
2013-11-22 09:00:00,49.8,46.4,30.07,NE,45,0.0,-999.0,88,-99.99,,,0.00,Acu-Link.com,2013-11-22 14:00:00,
2013-11-22 09:15:00,50.5,46.5,30.07,NE,45,1.7,-999.0,86,-99.99,,,0.00,Acu-Link.com,2013-11-22 14:15:00,
2013-11-22 09:30:00,51.8,47.4,30.08,NE,45,0.0,-999.0,85,-99.99,,,0.00,Acu-Link.com,2013-11-22 14:30:00,
2013-11-22 09:45:00,51.8,47.4,30.07,NE,45,1.1,-999.0,85,-99.99,,,0.00,Acu-Link.com,2013-11-22 14:45:00,
2013-11-22 10:01:00,51.8,47.4,30.07,NE,45,2.2,-999.0,85,-99.99,,,0.00,Acu-Link.com,2013-11-22 15:01:00,
2013-11-22 10:16:00,52.7,48.0,30.07,NE,45,0.0,-999.0,84,-99.99,,,0.00,Acu-Link.com,2013-11-22 15:16:00,
2013-11-22 10:31:00,53.1,48.1,30.06,NE,45,0.0,-999.0,83,-99.99,,,0.00,Acu-Link.com,2013-11-22 15:31:00,
2013-11-22 10:46:00,53.4,49.0,30.06,NNE,22,2.2,-999.0,85,-99.99,,,0.00,Acu-Link.com,2013-11-22 15:46:00,
2013-11-22 11:01:00,54.0,49.3,30.05,NNE,22,0.0,-999.0,84,-99.99,,,0.00,Acu-Link.com,2013-11-22 16:01:00,
2013-11-22 11:16:00,55.2,50.1,30.04,NNE,22,0.0,-999.0,83,-99.99,,,0.00,Acu-Link.com,2013-11-22 16:16:00,
2013-11-22 11:32:00,56.8,50.7,30.02,WSW,247,2.7,-999.0,80,-99.99,,,0.00,Acu-Link.com,2013-11-22 16:32:00,
2013-11-22 11:47:00,58.8,51.6,30.02,SSW,202,2.7,-999.0,77,-99.99,,,0.00,Acu-Link.com,2013-11-22 16:47:00,
2013-11-22 12:02:00,60.1,52.5,30.01,WSW,247,3.7,-999.0,76,-99.99,,,0.00,Acu-Link.com,2013-11-22 17:02:00,
2013-11-22 12:17:00,60.8,52.5,30.00,SE,135,3.7,-999.0,74,-99.99,,,0.00,Acu-Link.com,2013-11-22 17:17:00,
2013-11-22 12:32:00,60.6,52.6,29.99,ESE,112,2.7,-999.0,75,-99.99,,,0.00,Acu-Link.com,2013-11-22 17:32:00,
2013-11-22 12:47:00,60.3,52.3,29.98,West,270,3.2,-999.0,75,-99.99,,,0.00,Acu-Link.com,2013-11-22 17:47:00,
2013-11-22 13:02:00,60.6,52.6,29.97,SSW,202,2.2,-999.0,75,-99.99,,,0.00,Acu-Link.com,2013-11-22 18:02:00,
2013-11-22 13:17:00,59.9,52.7,29.96,SSW,202,6.3,-999.0,77,-99.99,,,0.00,Acu-Link.com,2013-11-22 18:17:00,
2013-11-22 13:32:00,60.8,52.8,29.96,WNW,292,2.7,-999.0,75,-99.99,,,0.00,Acu-Link.com,2013-11-22 18:32:00,
2013-11-22 13:48:00,60.4,52.4,29.95,WSW,247,4.7,-999.0,75,-99.99,,,0.00,Acu-Link.com,2013-11-22 18:48:00,
2013-11-22 14:03:00,60.4,52.4,29.94,South,180,3.7,-999.0,75,-99.99,,,0.00,Acu-Link.com,2013-11-22 19:03:00,
2013-11-22 14:18:00,60.1,52.5,29.94,NW,315,2.7,-999.0,76,-99.99,,,0.00,Acu-Link.com,2013-11-22 19:18:00,
2013-11-22 14:33:00,59.7,52.5,29.94,SW,225,2.2,-999.0,77,-99.99,,,0.00,Acu-Link.com,2013-11-22 19:33:00,
2013-11-22 14:48:00,59.9,52.7,29.93,West,270,2.2,-999.0,77,-99.99,,,0.00,Acu-Link.com,2013-11-22 19:48:00,
2013-11-22 15:03:00,60.1,52.9,29.92,West,270,0.0,-999.0,77,-99.99,,,0.00,Acu-Link.com,2013-11-22 20:03:00,
2013-11-22 15:18:00,60.4,53.2,29.92,SSW,202,1.7,-999.0,77,-99.99,,,0.00,Acu-Link.com,2013-11-22 20:18:00,
2013-11-22 15:33:00,60.1,52.9,29.93,NW,315,3.7,-999.0,77,-99.99,,,0.00,Acu-Link.com,2013-11-22 20:33:00,
2013-11-22 15:48:00,59.9,52.7,29.92,ESE,112,0.0,-999.0,77,-99.99,,,0.00,Acu-Link.com,2013-11-22 20:48:00,
2013-11-22 16:04:00,59.9,52.7,29.92,SE,135,1.1,-999.0,77,-99.99,,,0.00,Acu-Link.com,2013-11-22 21:04:00,
2013-11-22 16:19:00,59.7,52.8,29.92,South,180,0.0,-999.0,78,-99.99,,,0.00,Acu-Link.com,2013-11-22 21:19:00,
2013-11-22 16:34:00,59.5,53.0,29.91,SW,225,2.2,-999.0,79,-99.99,,,0.00,Acu-Link.com,2013-11-22 21:34:00,
2013-11-22 16:49:00,59.2,52.7,29.91,West,270,3.7,-999.0,79,-99.99,,,0.00,Acu-Link.com,2013-11-22 21:49:00,
2013-11-22 17:04:00,59.2,52.7,29.90,NNW,337,1.1,-999.0,79,-99.99,,,0.00,Acu-Link.com,2013-11-22 22:04:00,
2013-11-22 17:19:00,59.0,52.8,29.90,WNW,292,2.2,-999.0,80,-99.99,,,0.00,Acu-Link.com,2013-11-22 22:19:00,
2013-11-22 17:35:00,58.8,52.6,29.90,West,270,0.0,-999.0,80,-99.99,,,0.00,Acu-Link.com,2013-11-22 22:35:00,
2013-11-22 17:50:00,58.6,52.8,29.89,NNW,337,0.0,-999.0,81,-99.99,,,0.00,Acu-Link.com,2013-11-22 22:50:00,
2013-11-22 18:05:00,58.5,53.0,29.90,East,90,1.1,-999.0,82,-99.99,,,0.00,Acu-Link.com,2013-11-22 23:05:00,
2013-11-22 18:20:00,58.1,52.6,29.89,South,180,3.7,-999.0,82,-99.99,,,0.00,Acu-Link.com,2013-11-22 23:20:00,
2013-11-22 18:35:00,58.3,52.8,29.89,WNW,292,0.0,-999.0,82,-99.99,,,0.00,Acu-Link.com,2013-11-22 23:35:00,
2013-11-22 18:50:00,58.1,52.6,29.89,WNW,292,4.2,-999.0,82,-99.99,,,0.00,Acu-Link.com,2013-11-22 23:50:00,
2013-11-22 19:06:00,57.9,52.8,29.88,SW,225,1.1,-999.0,83,-99.99,,,0.00,Acu-Link.com,2013-11-23 00:06:00,
2013-11-22 19:21:00,57.9,52.8,29.88,South,180,1.7,-999.0,83,-99.99,,,0.00,Acu-Link.com,2013-11-23 00:21:00,
2013-11-22 19:36:00,57.9,52.8,29.87,WSW,247,1.7,-999.0,83,-99.99,,,0.00,Acu-Link.com,2013-11-23 00:36:00,
2013-11-22 19:51:00,58.1,53.3,29.87,WSW,247,2.2,-999.0,84,-99.99,,,0.00,Acu-Link.com,2013-11-23 00:51:00,
2013-11-22 20:06:00,58.1,53.3,29.87,West,270,0.0,-999.0,84,-99.99,,,0.00,Acu-Link.com,2013-11-23 01:06:00,
2013-11-22 20:21:00,58.1,53.3,29.87,West,270,0.0,-999.0,84,-99.99,,,0.00,Acu-Link.com,2013-11-23 01:21:00,
2013-11-22 20:36:00,57.9,53.1,29.87,WNW,292,0.0,-999.0,84,-99.99,,,0.00,Acu-Link.com,2013-11-23 01:36:00,
2013-11-22 20:52:00,57.6,53.1,29.87,WNW,292,0.0,-999.0,85,-99.99,,,0.00,Acu-Link.com,2013-11-23 01:52:00,
2013-11-22 21:07:00,57.0,52.9,29.86,SSW,202,0.0,-999.0,86,-99.99,,,0.00,Acu-Link.com,2013-11-23 02:07:00,
2013-11-22 21:22:00,56.7,52.9,29.86,SSW,202,0.0,-999.0,87,-99.99,,,0.00,Acu-Link.com,2013-11-23 02:22:00,
2013-11-22 21:37:00,56.1,52.3,29.85,SSW,202,0.0,-999.0,87,-99.99,,,0.00,Acu-Link.com,2013-11-23 02:37:00,
2013-11-22 21:52:00,55.8,52.0,29.87,West,270,0.0,-999.0,87,-99.99,,,0.00,Acu-Link.com,2013-11-23 02:52:00,
2013-11-22 22:07:00,55.6,52.1,29.87,West,270,0.0,-999.0,88,-99.99,,,0.00,Acu-Link.com,2013-11-23 03:07:00,
2013-11-22 22:22:00,55.2,52.0,29.86,NW,315,1.1,-999.0,89,-99.99,,,0.00,Acu-Link.com,2013-11-23 03:22:00,
2013-11-22 22:37:00,54.9,51.7,29.86,West,270,1.7,-999.0,89,-99.99,,,0.00,Acu-Link.com,2013-11-23 03:37:00,
2013-11-22 22:52:00,54.7,51.8,29.86,WSW,247,1.1,-999.0,90,-99.99,,,0.00,Acu-Link.com,2013-11-23 03:52:00,
2013-11-22 23:08:00,54.7,51.8,29.86,WSW,247,0.0,-999.0,90,-99.99,,,0.00,Acu-Link.com,2013-11-23 04:08:00,
2013-11-22 23:23:00,54.7,52.1,29.85,ESE,112,0.0,-999.0,91,-99.99,,,0.00,Acu-Link.com,2013-11-23 04:23:00,
2013-11-22 23:38:00,55.0,52.1,29.85,WSW,247,0.0,-999.0,90,-99.99,,,0.00,Acu-Link.com,2013-11-23 04:38:00,
2013-11-22 23:53:00,55.2,51.7,29.85,WSW,247,2.2,-999.0,88,-99.99,,,0.00,Acu-Link.com,2013-11-23 04:53:00,